RH
27 22 20 23 19 25 22 30 38 36 31 33 39 49 56 45 48 49 54 54 18 7 8 10 10 12 11 8 9 10 12 15 23 24 22 25 26 23 24 51 68 95 100 100 100 100 100
27 27 24 34 24 26 27 25 31 44 35 32 37 42 52 52 55 51 56 55 52 19 9 8 10 10 12 10 9 10 12 15 18 24 34 33 31 30 26 22 17 21 80 90 80 100 99
27 31 31 26 22 36 24 26 32 45 49 41 41 46 49 52 54 52 51 47 49 51 26 9 9 13 12 11 9 10 12 18 23 30 37 42 36 33 31 24 22 23 18 17 20 39 38
34 41 37 28 21 28 24 26 32 37 42 53 49 55 58 54 48 56 64 65 61 54 59 52 11 9 13 14 11 10 11 14 20 29 37 37 36 35 32 31 30 30 27 28 26 24 27
41 39 39 35 27 24 30 29 31 29 40 40 69 53 61 63 53 47 61 62 67 67 59 58 53 14 11 14 15 13 13 13 15 16 22 29 34 35 39 40 39 36 38 37 38 37 30
46 45 37 40 40 31 35 36 31 28 29 42 54 73 64 78 61 50 49 70 67 66 66 68 62 51 18 11 15 17 15 14 16 19 20 25 28 31 36 38 38 39 45 48 47 52 44
60 53 55 47 54 41 40 40 32 32 27 44 55 78 77 59 68 67 57 61 65 71 69 73 66 65 45 16 11 16 18 17 15 18 21 23 25 30 33 37 36 36 39 40 34 61 43
68 63 60 49 55 52 47 50 36 30 26 33 53 68 68 69 86 74 65 74 72 61 77 68 66 68 72 38 19 12 17 20 20 17 18 20 23 26 28 32 35 35 39 45 46 59 54
59 64 51 44 47 60 46 47 57 37 36 30 35 51 55 86 92 78 69 70 78 82 70 70 80 78 83 66 35 15 12 19 20 22 21 22 25 24 24 27 30 33 35 39 42 51 69
40 33 37 42 51 54 61 59 52 67 52 43 34 34 52 74 86 84 84 83 76 68 74 78 77 75 81 72 62 31 13 13 20 23 24 22 25 23 24 25 26 30 34 38 36 40 58
48 43 36 36 43 64 68 58 56 58 54 65 40 46 38 33 61 88 98 80 87 91 83 75 68 76 91 86 73 57 27 12 13 21 23 32 28 27 27 30 30 31 29 31 32 38 41
72 62 55 40 49 54 69 68 49 34 48 52 52 56 54 48 51 64 82 87 85 86 91 89 74 76 80 85 84 76 44 21 12 14 23 29 29 30 33 32 28 29 27 28 29 34 32
56 42 66 44 54 32 57 60 65 37 53 60 59 68 56 68 59 74 76 87 85 96 98 98 92 75 75 81 90 76 65 39 16 13 19 28 27 34 36 35 35 32 31 30 29 30 32
43 56 46 49 43 39 42 56 54 41 42 75 87 84 83 74 76 72 82 78 91 87 89 87 100 100 92 83 97 98 70 51 35 13 13 21 30 36 60 49 49 59 56 42 51 44 50
39 43 64 54 44 40 58 69 73 66 61 61 78 92 79 88 79 80 93 95 89 77 100 94 100 99 100 100 100 89 89 51 44 22 12 15 27 37 46 64 56 51 45 100 80 58 33
45 30 63 90 72 71 86 91 98 100 99 87 76 67 67 75 75 68 78 94 98 100 98 100 85 97 100 98 100 100 91 81 39 30 15 13 20 37 50 52 54 55 87 76 55 52 60
46 39 49 88 74 86 94 100 100 100 100 100 100 100 94 85 70 76 85 86 97 100 100 100 86 98 100 99 99 100 100 100 62 35 18 13 15 33 38 51 83 95 87 66 82 64 68
76 37 43 76 100 100 98 100 100 100 100 100 100 100 100 100 89 84 85 96 100 100 100 100 100 96 90 99 99 100 100 100 86 37 21 13 13 17 35 85 91 69 76 85 81 82 76
64 42 47 90 100 99 79 82 92 100 100 100 100 100 100 100 99 90 91 92 97 100 100 100 100 100 90 100 92 100 96 94 100 66 20 13 12 14 26 58 93 98 91 81 88 92 77
36 43 73 47 94 88 58 71 86 95 100 100 100 100 100 100 100 99 99 96 100 100 100 100 100 100 96 100 93 89 90 99 100 92 28 12 12 13 15 31 78 91 100 100 96 92 97
49 52 72 65 73 65 70 64 87 100 100 100 100 100 100 100 100 94 100 100 100 100 100 100 100 98 98 100 91 78 78 100 100 90 32 11 11 12 16 22 50 88 100 100 96 90 92
66 57 88 75 98 84 100 100 100 100 100 100 100 100 100 100 100 88 84 92 100 100 100 100 100 100 95 100 94 77 80 93 100 63 25 11 11 12 16 19 25 63 100 100 98 94 90
95 100 91 81 84 98 100 93 65 90 100 100 100 100 100 100 100 100 98 94 92 100 100 100 100 100 99 100 91 70 82 89 96 44 17 10 10 11 12 19 24 25 69 100 100 100 100
100 100 83 73 97 100 78 65 94 98 90 99 95 99 96 100 100 97 96 100 99 100 100 100 100 100 100 95 83 69 80 75 75 29 11 10 10 9 11 15 15 29 64 66 99 100 100
84 71 65 60 56 69 67 64 86 92 96 99 100 100 100 100 100 98 75 96 100 100 100 100 100 100 100 95 77 64 77 69 44 16 9 9 9 9 9 12 14 22 55 73 72 99 100
68 44 49 55 59 61 72 78 73 69 90 97 100 100 100 100 100 100 85 95 100 100 100 100 100 100 100 95 77 51 80 68 27 9 8 8 8 7 8 10 11 22 44 63 76 73 93
58 56 65 96 100 90 93 81 72 89 100 96 100 100 100 100 100 100 100 100 100 100 100 100 100 100 100 75 68 53 67 45 14 8 8 7 7 7 9 8 9 17 29 45 61 85 88
87 90 100 100 99 99 99 100 100 100 100 100 100 100 100 100 100 100 100 100 100 100 100 100 99 100 93 82 52 63 48 21 8 7 6 6 5 6 7 7 9 15 21 26 48 82 100
100 100 99 98 80 94 100 100 100 100 100 100 100 100 100 100 100 100 100 100 100 100 100 100 100 100 89 56 55 47 30 10 7 6 6 6 5 6 7 8 10 14 18 23 34 54 81
Wind_Speed
46 52 56 58 64 66 72 76 82 85 85 91 97 101 103 102 101 104 104 104 90 61 41 26 15 10 15 29 49 65 81 89 95 96 96 94 98 103 108 117 122 118 119 118 98 83 74
46 52 58 58 64 67 69 74 78 82 83 87 95 98 101 107 103 102 105 100 99 88 61 41 27 14 13 19 37 52 69 84 90 94 98 97 99 102 104 100 105 102 107 111 114 114 102
49 54 58 58 62 66 69 72 77 79 82 89 93 95 98 102 105 106 105 102 99 99 89 62 41 26 18 17 26 41 58 73 83 90 92 94 97 97 100 94 90 93 99 101 101 106 109
49 54 56 61 63 68 73 74 78 79 82 85 92 95 98 100 102 104 106 105 100 98 95 92 67 41 26 20 21 31 48 64 77 84 88 90 89 91 92 91 90 94 91 91 94 93 94
49 56 57 61 64 66 74 76 76 80 81 84 88 93 95 98 102 103 104 106 103 101 100 93 89 68 43 27 21 24 34 49 65 74 82 88 89 89 90 93 92 90 91 93 92 94 92
50 56 60 63 66 67 72 77 75 78 83 85 85 89 91 96 100 101 103 105 104 103 101 100 94 86 68 40 27 22 27 38 51 63 71 80 86 84 89 91 86 91 96 97 93 92 90
51 55 61 63 69 68 68 74 75 75 81 83 86 87 92 93 97 98 101 104 102 102 101 100 94 91 84 62 36 26 24 31 40 51 61 72 76 78 85 90 94 96 98 96 92 89 91
53 54 61 64 69 67 68 71 74 75 78 84 85 88 90 93 96 95 97 100 102 102 104 102 98 95 89 79 62 34 27 26 34 43 53 59 61 71 80 87 93 93 93 94 88 89 92
52 53 59 63 67 70 69 69 72 74 77 80 84 89 91 91 93 97 96 99 99 101 101 101 100 98 93 86 76 55 31 29 30 36 42 48 58 68 74 79 84 85 86 91 89 91 92
49 55 60 64 67 68 69 71 72 72 75 81 84 89 91 92 91 94 97 97 99 100 101 100 99 100 97 93 83 70 47 30 31 33 39 44 51 58 61 62 72 77 82 90 86 87 90
53 55 62 63 66 69 69 70 70 73 74 77 83 87 91 94 92 93 93 95 100 100 100 99 98 99 100 95 88 78 66 41 31 35 36 40 49 52 55 60 67 69 80 79 76 84 87
56 59 61 64 66 67 69 70 70 71 74 76 80 85 87 91 92 93 93 96 96 98 100 100 100 99 100 100 96 84 72 60 37 32 36 42 45 49 53 58 60 66 66 69 70 77 74
58 63 62 64 67 69 67 72 69 71 73 75 79 86 87 88 93 93 94 94 95 95 97 98 99 100 99 101 97 93 76 70 53 35 35 44 45 50 55 58 59 62 61 64 66 67 64
59 60 60 65 65 69 67 69 70 71 74 77 79 84 86 89 92 95 95 94 94 94 94 98 99 100 101 99 101 93 86 72 70 46 37 39 46 51 54 58 62 58 59 64 65 66 68
58 64 62 65 68 70 68 68 71 72 76 80 84 86 89 90 95 94 96 97 95 97 93 96 97 99 102 103 101 101 95 76 74 64 41 39 44 53 56 60 64 60 59 59 67 67 69
61 63 64 65 71 71 74 71 75 75 78 80 85 86 89 91 93 95 96 96 94 95 95 96 99 99 99 101 101 97 96 95 73 71 55 40 43 54 58 64 63 62 66 68 66 63 60
68 65 63 67 71 72 76 77 76 79 82 83 85 87 90 94 94 94 93 98 97 96 98 99 102 101 100 101 102 104 98 96 82 74 64 46 46 54 59 60 65 68 69 69 69 64 65
71 70 67 67 73 75 78 79 80 83 86 88 90 92 95 97 99 97 99 99 100 99 98 101 101 106 105 105 102 104 101 95 90 80 69 52 48 50 57 63 68 70 71 73 70 66 66
74 77 72 71 75 74 79 80 82 83 89 90 91 93 97 99 102 103 103 104 101 102 102 102 102 106 109 109 105 102 107 99 97 89 75 57 51 50 58 66 69 72 70 72 69 73 69
74 75 75 75 77 80 81 83 86 89 94 94 96 97 101 103 104 107 109 110 108 105 106 106 105 105 110 112 111 105 107 104 102 96 84 63 52 53 58 66 75 76 74 73 73 74 67
77 77 78 81 84 86 87 86 90 97 101 101 98 99 100 105 108 109 110 111 113 111 109 112 111 108 110 110 111 109 109 110 105 96 87 67 52 54 59 66 74 79 77 76 76 69 72
84 85 88 89 90 90 92 95 99 100 103 106 107 107 110 107 112 113 114 113 114 115 117 115 115 115 112 112 115 109 110 111 108 93 85 68 52 53 61 68 73 79 82 80 78 75 70
90 90 94 95 95 97 97 99 102 103 105 106 111 114 115 116 113 118 117 119 116 115 122 118 120 117 116 115 118 113 111 112 103 94 84 68 57 55 57 70 76 74 81 83 82 78 75
92 94 97 95 99 101 102 105 106 108 112 112 116 119 121 118 121 123 121 120 119 120 122 121 121 121 117 117 119 113 116 107 100 95 78 63 58 57 56 69 75 75 83 84 84 82 80
102 100 100 100 100 105 108 108 111 113 116 118 120 123 124 122 128 125 124 125 121 121 126 125 123 122 120 120 120 111 117 109 98 88 71 59 58 54 56 66 69 75 84 87 84 86 84
104 104 105 106 108 109 113 113 116 117 122 123 127 127 129 128 129 129 130 131 124 122 123 125 121 120 120 119 122 110 112 105 95 78 68 58 55 57 55 59 64 73 84 88 90 85 84
110 109 110 110 114 115 118 119 123 125 126 127 130 133 133 133 134 134 131 128 124 132 127 122 118 119 122 122 117 111 103 95 89 69 61 58 54 52 53 56 58 70 83 87 88 86 88
117 111 116 118 120 122 123 124 127 130 131 130 135 139 137 134 136 137 135 134 138 133 126 115 113 117 118 119 111 110 95 91 78 64 55 53 50 49 52 53 51 64 79 84 85 90 92
120 117 122 122 123 123 127 128 133 134 135 139 137 142 141 138 135 137 131 127 127 120 109 111 115 114 116 109 109 99 92 85 70 59 51 48 47 45 46 47 50 59 72 82 84 88 90
Wind_Direction
357 356 359 360 2 3 5 6 7 8 11 14 18 18 20 20 21 21 23 24 22 17 9 357 328 305 274 237 234 230 229 230 231 233 231 231 231 231 233 235 237 240 241 243 244 245 252
354 356 356 357 360 0 5 5 6 7 11 14 13 15 18 18 20 22 23 24 25 26 17 7 355 317 265 243 234 229 228 228 230 231 233 231 232 233 232 235 234 238 243 242 246 249 243
350 353 353 355 356 359 1 4 4 5 5 8 12 13 14 16 18 22 21 22 23 26 26 18 7 347 306 262 241 232 227 227 229 230 232 234 234 233 234 236 235 235 237 239 242 245 247
348 348 350 352 354 359 1 3 6 5 5 4 8 10 11 14 16 17 19 21 23 23 25 25 18 5 343 300 259 239 231 227 229 230 232 233 237 236 236 239 240 241 241 242 241 242 245
349 349 347 348 350 354 0 0 1 4 4 5 5 7 9 11 14 16 18 19 22 24 20 22 23 19 2 338 296 255 240 234 231 231 233 234 234 236 236 238 241 241 243 244 242 242 243
345 349 350 352 351 351 356 0 360 1 4 3 5 4 7 9 11 14 16 17 19 20 20 21 19 20 17 360 329 291 255 239 236 234 233 234 236 236 238 238 240 238 239 241 242 244 244
342 345 346 348 352 351 353 358 359 0 3 3 4 4 5 7 7 10 12 15 17 18 17 19 18 18 17 14 352 317 281 254 240 235 235 235 236 237 236 236 236 237 239 242 242 245 244
339 341 343 345 349 350 352 355 358 359 359 2 3 3 4 4 4 7 8 11 12 14 16 17 16 15 15 14 10 344 308 272 253 240 237 237 237 236 235 235 237 238 239 242 241 243 245
338 339 342 345 347 350 351 352 353 358 356 359 1 3 3 1 4 4 6 6 9 9 11 13 14 14 12 11 10 4 331 296 267 253 241 238 234 235 236 237 237 239 240 242 240 241 245
338 343 343 340 344 346 347 349 350 351 354 355 358 358 360 360 1 3 3 4 5 5 7 9 12 12 12 8 8 7 357 317 285 261 251 242 237 239 240 242 243 242 240 240 239 242 244
333 335 336 340 342 343 345 346 346 349 350 352 355 358 358 359 359 358 359 360 1 2 4 6 6 6 7 8 5 3 3 346 303 274 257 248 243 237 236 235 236 236 239 242 241 243 244
328 330 333 336 339 340 343 344 345 346 348 349 351 354 355 356 357 357 358 356 358 360 359 360 3 3 6 6 4 1 0 356 332 291 266 251 247 241 237 239 240 240 242 242 241 242 244
324 327 329 334 335 339 341 341 343 342 346 346 348 348 351 353 353 354 355 355 355 356 356 357 360 0 1 2 2 0 357 356 348 313 276 258 248 243 241 237 238 239 239 240 241 242 242
323 322 324 328 332 337 337 340 340 340 341 342 342 345 346 347 349 350 350 352 353 354 354 355 354 354 357 360 359 358 356 352 352 332 295 266 253 247 242 241 236 232 234 234 235 235 234
319 317 316 324 327 331 334 333 337 337 337 338 339 340 342 343 345 347 346 347 349 351 349 349 352 352 352 354 355 356 354 349 348 343 315 280 257 246 245 242 243 239 236 236 236 236 237
312 316 312 314 321 328 331 331 332 333 334 335 335 337 339 340 342 343 344 345 344 345 346 346 348 348 350 350 352 351 352 351 344 341 326 295 265 250 243 244 244 242 234 236 240 236 237
308 316 315 312 317 323 325 326 328 330 331 332 332 333 335 336 338 339 340 342 342 342 343 341 342 343 345 346 346 347 348 349 342 338 328 303 274 254 246 244 243 240 240 239 239 236 233
304 310 315 314 319 317 321 323 324 325 327 327 328 330 331 333 335 336 337 337 338 339 339 338 337 340 341 342 344 344 344 344 342 335 327 307 280 262 251 239 241 243 240 238 239 240 236
302 303 311 312 314 313 317 320 321 324 324 326 324 325 328 330 333 334 333 334 335 336 336 336 335 337 338 338 340 339 341 341 340 334 327 309 284 263 250 242 239 242 242 241 236 239 238
302 302 305 308 308 309 312 314 317 319 320 321 323 324 324 326 328 331 332 332 333 334 334 334 333 334 335 335 336 337 338 338 335 333 326 309 289 267 254 243 236 236 239 241 239 236 237
301 300 300 303 305 306 310 311 313 315 316 319 320 320 320 322 326 327 329 329 329 330 330 332 331 331 331 333 333 333 335 335 333 330 324 309 288 266 253 246 240 236 235 239 242 239 236
297 299 302 303 303 306 308 307 313 313 315 317 317 320 321 318 320 325 328 326 327 327 327 326 328 329 329 330 332 331 333 331 331 328 321 306 286 264 249 245 242 236 233 234 237 239 239
296 295 301 301 303 305 305 306 309 311 312 314 316 317 319 319 316 320 322 323 324 323 324 324 324 326 327 328 330 329 331 328 328 326 317 305 286 263 249 243 241 240 233 231 232 235 237
295 296 299 302 300 302 303 304 306 308 310 311 313 314 316 317 316 318 320 319 320 319 322 322 322 323 325 326 327 327 328 328 326 323 314 301 285 269 249 242 241 238 238 234 229 231 234
292 293 296 298 299 300 302 302 304 305 308 308 310 312 313 313 315 315 317 318 318 316 319 320 318 319 322 323 324 326 325 326 324 319 310 297 281 269 254 242 240 235 236 237 233 228 230
289 294 294 298 298 300 301 301 301 304 305 307 306 308 310 311 311 312 314 314 314 313 314 318 316 318 319 320 321 323 326 323 323 315 305 293 279 271 259 247 240 232 233 234 236 233 228
289 292 292 295 297 299 298 299 300 301 302 303 304 306 307 308 307 308 310 312 313 311 311 315 315 316 317 318 320 321 323 323 320 313 303 292 281 271 259 252 241 231 232 233 233 233 235
288 288 290 294 296 299 298 299 298 297 300 301 302 304 305 304 304 305 306 306 309 309 311 312 314 315 317 317 318 322 322 322 318 310 302 290 282 270 260 254 242 233 231 233 232 232 233
290 289 289 293 296 297 296 297 297 297 299 299 301 301 301 301 301 304 304 306 306 308 310 311 312 314 315 316 320 320 322 320 315 310 301 289 280 268 258 252 241 233 230 233 232 232 232